Regional Weather Roundup
Issued by NWS Goodland, KS

Home | Current Version | Previous Version | Graphics & Text | Print | Product List | Glossary On
Versions: 1 2 3 4 5 6 7 8 9 10 11 12 13 14 15 16 17 18 19 20 21 22 23 24 25 26 27 28 29 30 31 32 33 34 35 36 37 38 39 40 41 42 43 44 45 46 47 48 49 50
000
ASUS43 KGLD 281759
RWRGLD

GOODLAND FORECAST AREA HOURLY WEATHER ROUNDUP
NATIONAL WEATHER SERVICE GOODLAND KS
1200 PM MDT THU MAY 28 2015

...OFFICIAL OBSERVATIONS...

CITY           SKY/WX    TMP DP  RH WIND       PRES   REMARKS
GOODLAND KS    PTSUNNY   70  59  68 S13       30.00F
HILL CITY KS   CLOUDY    74  60  61 SE9       30.01F
IMPERIAL NEB   CLOUDY    66  57  72 S5        29.99F
MCCOOK NEB     PTSUNNY   73  61  65 S13       29.98F
AKRON CO       SUNNY     72  53  51 E8        30.01F
BURLINGTON CO  MOSUNNY   74  56  53 SE9       30.00F
LIMON CO       SUNNY     72  52  49 VRB5      30.04F
$$

...UNOFFICIAL OBSERVATIONS...

CITY           SKY/WX    TMP DP  RH WIND       PRES   REMARKS
COLBY KS       CLOUDY    70  64  83 SE14      30.03S
NORTON KS      SUNNY     73  55  53 SE14      30.00S
SHARON SPRINGS   N/A     72  62  71 MISG        N/A
$$



USA.gov is the U.S. government's official web portal to all federal, state and local government web resources and services.